Wind_Speed
28 28 28 27 27 27 28 30 31 31 31 32 32 32 32 33 34 35 35 35 36 36 36 37 38 39 40 41 42 43 44 45 45 45 45 45 46 46 46 47 48 49 49 51
27 27 27 27 27 27 27 28 30 31 31 32 32 32 33 33 34 35 36 36 36 36 37 37 37 37 38 39 40 40 41 42 42 43 43 44 44 45 45 45 46 47 48 49
28 27 27 26 27 27 27 28 29 30 31 32 31 33 33 33 33 34 35 35 35 36 36 37 37 37 37 37 37 38 39 39 40 41 42 42 43 43 43 44 44 45 46 47
28 28 27 28 28 28 28 28 29 29 31 32 32 32 33 33 32 32 33 33 34 35 36 36 36 37 37 36 37 37 38 38 39 40 41 41 41 42 43 43 43 43 43 44
29 28 28 27 28 28 29 28 29 30 30 31 32 32 31 32 32 32 32 33 33 34 35 35 35 36 36 36 36 36 36 37 38 39 40 40 40 41 41 41 41 41 41 42
28 27 27 27 28 29 29 29 29 30 30 31 31 31 30 31 31 31 32 32 32 32 32 32 33 34 34 34 35 35 35 36 37 38 38 38 38 39 39 39 39 39 40 41
26 26 26 27 27 28 28 29 29 29 30 30 30 30 30 31 31 30 30 31 31 31 31 31 31 32 32 33 34 34 35 35 36 36 37 37 37 38 38 39 38 39 39 40
26 26 26 27 27 27 28 28 28 28 28 28 28 28 28 28 28 29 29 30 30 30 30 30 30 31 31 32 32 33 33 33 33 33 34 35 36 37 39 39 40 39 39 39
27 26 27 27 27 27 27 27 27 27 27 28 28 27 26 26 26 27 28 29 29 29 29 30 30 30 31 31 32 32 32 32 32 32 32 33 35 36 37 38 38 38 38 38
26 26 26 26 27 27 27 27 27 27 27 27 27 26 26 26 26 27 27 27 27 28 28 28 29 29 30 30 30 30 30 31 31 31 31 32 33 34 35 36 37 37 37 37
25 25 26 26 26 26 26 26 26 26 26 26 26 25 25 26 26 26 26 26 26 26 27 27 27 28 27 28 27 27 27 28 29 30 30 30 30 31 33 34 34 35 35 36
24 25 24 25 25 25 25 25 25 25 25 26 25 25 25 25 25 25 25 25 25 26 26 26 26 26 26 26 26 26 26 27 28 27 27 28 28 29 31 32 33 33 33 34
24 24 24 25 25 24 24 24 24 24 24 25 25 25 24 25 25 25 25 25 25 25 25 25 25 25 25 25 25 26 26 26 27 27 26 27 27 27 28 29 30 31 31 32
25 24 24 24 23 23 23 23 24 23 23 24 24 24 24 25 25 25 25 24 23 23 23 23 23 23 24 24 24 25 25 26 25 25 25 26 26 27 27 27 28 29 30 30
24 24 23 23 22 23 23 23 23 22 22 23 23 24 25 25 25 24 23 22 22 22 23 23 23 22 22 23 23 23 23 24 23 23 24 24 25 26 26 26 26 27 28 29
24 23 22 22 22 22 23 23 23 22 23 24 24 25 25 25 24 23 22 21 21 22 22 22 22 22 22 22 22 21 21 21 22 22 22 23 23 24 25 25 26 27 27 28
22 22 21 21 22 22 23 23 23 23 24 24 25 25 25 24 23 22 22 22 22 22 21 21 21 21 21 21 21 21 21 21 21 21 21 21 22 22 23 23 24 25 25 26
22 21 21 21 22 23 23 23 24 24 24 25 25 25 24 23 22 22 22 22 22 22 22 22 21 21 21 21 21 21 21 21 20 20 20 21 21 22 22 22 23 23 24 25
22 22 22 23 23 23 24 24 25 25 25 25 24 24 23 23 22 22 23 22 22 21 21 21 21 21 21 21 21 20 20 20 21 21 21 21 21 22 22 22 22 22 23 23
23 23 23 24 24 24 24 24 25 25 25 24 24 23 23 23 23 23 23 23 22 22 22 22 21 21 21 21 21 21 21 21 21 20 21 21 21 22 22 22 22 22 22 23
23 23 23 23 23 23 24 25 25 25 25 24 23 23 23 23 23 23 23 23 22 23 23 23 23 22 22 22 22 22 22 21 21 21 21 21 21 21 22 22 22 22 22 23
23 23 23 23 23 25 25 25 25 25 24 23 23 23 23 24 24 24 24 23 23 23 23 23 23 23 22 22 22 21 21 21 21 20 20 20 20 20 21 21 22 22 22 23
24 23 23 23 24 25 25 25 24 24 24 23 23 23 24 24 24 24 24 24 24 24 24 24 23 23 22 22 22 22 21 21 20 20 19 19 19 20 20 21 21 22 22 22
24 23 23 23 24 24 24 23 23 23 23 23 23 23 24 24 23 24 24 24 24 24 24 24 24 23 23 23 23 23 22 21 20 19 19 18 19 19 19 19 19 20 20 21
23 23 23 23 23 23 23 22 21 21 22 22 23 23 23 23 23 23 23 24 24 24 24 24 24 24 23 23 22 22 21 20 19 19 18 18 17 17 17 17 18 18 19 19
22 22 22 22 21 21 21 21 21 21 22 22 23 23 22 22 22 23 23 24 24 24 24 24 24 23 23 22 22 21 20 20 19 18 17 17 17 17 17 17 18 18 18 19
21 21 21 21 21 21 21 21 21 22 22 22 22 23 23 23 23 23 24 24 24 25 25 25 24 24 23 22 21 21 20 19 18 18 17 17 17 17 17 17 18 18 18 18
Wind_Direction
293 293 291 292 291 289 287 285 286 287 286 284 283 283 282 280 279 278 278 278 277 275 274 274 274 272 271 269 267 265 264 263 263 263 263 262 261 259 257 256 255 254 252 252
293 294 294 291 291 290 287 287 288 287 286 285 283 283 283 282 281 280 279 278 277 276 275 275 274 274 273 271 269 267 266 265 264 263 263 262 261 258 256 256 255 254 252 252
294 294 294 293 293 291 290 289 288 288 288 286 285 284 283 283 283 282 281 279 279 278 277 277 276 275 274 272 270 269 268 267 265 264 263 262 261 258 257 256 255 255 253 251
297 296 295 297 296 294 292 291 291 291 291 290 288 287 286 285 285 284 283 282 283 282 280 279 277 275 274 273 272 271 270 268 266 265 264 263 261 258 257 255 255 254 253 251
299 298 298 299 299 298 296 295 294 294 294 293 292 291 288 286 286 285 284 284 284 284 282 280 277 276 275 274 273 273 272 270 268 266 265 263 261 258 257 256 255 254 254 253
301 300 302 303 302 301 300 298 297 296 296 295 295 294 290 287 287 286 286 285 285 285 284 282 279 277 276 274 273 273 273 272 270 268 266 263 261 259 257 257 256 255 255 254
304 302 302 305 305 304 303 303 301 300 300 298 297 296 294 292 291 290 289 289 288 286 285 284 281 279 277 276 274 273 274 274 272 270 267 264 260 258 257 257 258 257 258 257
306 305 305 307 307 307 307 305 304 303 302 301 301 299 297 295 294 293 292 292 291 289 286 285 283 281 280 278 276 276 275 274 273 271 268 264 260 259 258 258 258 258 258 258
306 307 307 309 309 309 308 307 306 305 304 304 303 301 299 298 297 296 294 294 292 291 288 286 284 283 283 280 279 277 275 273 272 271 270 266 262 261 260 259 258 258 258 257
306 307 307 309 308 308 309 309 308 307 308 308 308 304 301 300 300 299 299 296 294 293 291 289 287 286 284 282 280 278 276 274 273 272 271 268 264 262 262 261 260 259 258 256
306 306 307 308 309 309 309 308 308 309 309 310 309 307 304 302 302 302 301 299 297 296 294 292 290 288 286 284 281 278 277 276 275 273 271 268 265 263 262 261 261 260 258 256
307 308 308 309 310 311 310 309 309 309 310 312 312 310 308 307 307 305 303 301 300 298 297 294 291 289 287 285 282 279 279 278 277 274 272 269 266 265 264 262 261 259 259 258
310 310 309 310 312 313 311 311 311 311 312 313 313 313 311 312 312 310 308 305 303 301 299 298 295 293 290 288 286 283 281 279 278 275 273 271 268 266 265 264 262 260 259 258
311 311 311 313 313 313 313 313 312 313 313 314 315 314 314 314 313 312 309 307 306 304 302 300 298 296 293 291 289 286 283 281 280 276 273 270 268 268 267 266 264 262 260 259
311 311 311 312 313 314 315 315 316 315 316 317 317 317 317 317 316 314 311 309 308 307 306 304 302 299 295 293 291 288 285 282 279 277 274 271 270 270 269 268 266 264 262 260
312 311 310 311 314 316 316 316 317 315 315 316 316 317 319 321 320 318 316 313 312 311 310 309 307 305 302 298 295 291 288 285 282 279 276 272 271 271 270 269 268 266 264 262
314 312 311 312 314 316 317 318 318 316 315 316 316 317 319 320 321 320 318 316 314 314 314 312 310 309 307 303 299 295 291 288 285 281 278 274 273 273 272 271 270 267 265 263
314 314 313 314 315 315 316 317 318 317 316 315 315 315 316 318 320 320 319 317 315 315 315 315 314 314 312 309 304 299 294 290 288 284 279 276 275 275 274 274 272 270 267 265
314 313 313 313 313 314 314 316 316 317 317 316 316 314 315 316 318 320 320 319 319 318 317 317 316 314 314 312 309 305 299 294 291 287 282 278 277 276 276 275 274 272 269 268
312 312 313 313 313 313 315 316 316 317 317 317 317 316 314 314 316 317 318 318 318 318 318 316 315 314 313 312 310 307 303 299 294 290 286 281 278 277 276 276 275 272 269 268
312 312 312 313 313 314 314 315 316 316 317 317 317 317 316 316 316 316 316 317 317 318 318 317 316 315 313 312 311 309 306 302 298 293 288 284 281 278 276 275 275 273 270 268
313 313 312 312 312 313 314 314 315 315 316 316 317 318 318 317 316 315 315 316 316 317 318 317 316 314 314 314 313 312 309 305 301 296 291 285 282 279 277 276 275 274 271 269
314 314 313 313 313 314 314 314 315 315 316 316 317 318 318 317 316 316 316 317 317 317 317 317 317 315 313 314 314 313 311 308 304 299 294 290 286 282 280 278 276 274 272 270
314 314 314 314 315 315 315 314 314 315 316 318 319 320 320 319 318 318 318 319 320 320 319 319 318 316 315 313 313 312 312 311 308 303 298 294 291 288 284 281 279 277 274 273
314 314 314 315 315 316 316 316 316 317 319 320 321 322 322 321 320 320 321 322 322 322 322 322 320 318 316 315 314 313 312 311 309 306 302 299 295 292 288 285 282 279 278 276
316 316 317 317 318 318 318 317 317 317 319 320 322 322 322 321 321 322 322 323 323 323 324 324 323 321 319 317 315 313 312 310 308 306 303 301 298 295 292 288 286 284 282 281
318 318 318 318 318 318 318 318 318 319 319 321 322 322 321 321 321 321 322 322 322 322 323 323 322 321 319 318 316 314 312 310 308 305 303 301 299 297 293 290 288 287 285 283
Height
5554 5551 5547 5544 5542 5539 5536 5533 5531 5529 5526 5524 5520 5518 5516 5513 5511 5510 5508 5507 5506 5505 5503 5502 5501 5499 5498 5498 5498 5497 5497 5498 5498 5498 5498 5499 5500 5500 5501 5503 5504 5505 5507 5509
5546 5543 5539 5536 5534 5531 5528 5524 5522 5519 5517 5514 5511 5509 5506 5504 5501 5499 5498 5496 5495 5493 5492 5491 5489 5488 5486 5485 5485 5484 5484 5484 5484 5484 5484 5485 5486 5487 5488 5489 5490 5491 5493 5495
5538 5535 5531 5528 5526 5523 5519 5516 5513 5510 5508 5505 5502 5499 5496 5494 5491 5489 5487 5485 5484 5482 5481 5479 5477 5476 5475 5474 5473 5472 5472 5471 5471 5471 5471 5472 5472 5473 5474 5476 5477 5478 5479 5481
5529 5527 5523 5523 5518 5514 5511 5508 5504 5501 5498 5495 5492 5490 5486 5484 5481 5479 5477 5475 5473 5471 5469 5467 5466 5464 5463 5462 5462 5461 5460 5459 5459 5459 5459 5459 5459 5460 5461 5463 5464 5465 5466 5468
5521 5517 5515 5513 5509 5505 5502 5500 5496 5492 5489 5486 5483 5481 5478 5474 5472 5469 5467 5465 5463 5460 5458 5456 5454 5453 5452 5451 5450 5449 5448 5447 5447 5446 5446 5446 5447 5448 5449 5450 5451 5452 5454 5455
5513 5509 5507 5506 5501 5497 5495 5491 5488 5484 5481 5477 5474 5472 5470 5466 5463 5460 5457 5455 5452 5450 5447 5445 5443 5442 5441 5440 5439 5438 5437 5436 5435 5434 5434 5434 5435 5435 5436 5438 5439 5440 5441 5442
5506 5502 5499 5497 5493 5490 5487 5484 5479 5475 5472 5469 5465 5462 5459 5456 5453 5450 5448 5445 5443 5440 5438 5435 5433 5432 5430 5429 5428 5427 5426 5424 5423 5422 5422 5422 5423 5424 5425 5426 5427 5428 5429 5430
5500 5496 5495 5490 5486 5483 5479 5475 5471 5467 5464 5461 5457 5454 5450 5447 5444 5441 5439 5436 5433 5430 5428 5425 5423 5422 5420 5419 5417 5416 5415 5413 5412 5411 5411 5411 5412 5412 5413 5414 5415 5416 5417 5418
5494 5492 5487 5482 5478 5475 5471 5468 5464 5460 5457 5453 5449 5446 5443 5439 5436 5433 5430 5427 5424 5421 5418 5416 5414 5412 5410 5408 5407 5405 5404 5403 5402 5401 5400 5400 5400 5401 5401 5402 5403 5404 5405 5407
5487 5483 5480 5476 5472 5468 5464 5460 5457 5453 5449 5446 5442 5438 5435 5432 5429 5425 5422 5419 5415 5412 5410 5407 5405 5403 5400 5398 5396 5395 5394 5393 5392 5391 5390 5389 5389 5390 5390 5391 5391 5392 5393 5395
5480 5477 5473 5469 5465 5462 5458 5454 5450 5447 5443 5439 5435 5431 5428 5425 5421 5418 5414 5411 5408 5405 5402 5399 5396 5394 5391 5389 5387 5386 5385 5384 5382 5381 5380 5379 5379 5379 5379 5380 5380 5381 5382 5383
5474 5470 5467 5463 5459 5455 5452 5448 5444 5441 5437 5433 5428 5425 5421 5418 5414 5411 5407 5404 5400 5397 5394 5391 5388 5385 5383 5380 5379 5377 5376 5375 5373 5372 5371 5370 5370 5369 5369 5369 5369 5370 5371 5372
5467 5463 5460 5456 5453 5449 5445 5442 5438 5434 5431 5427 5423 5419 5415 5411 5408 5404 5400 5397 5393 5390 5386 5383 5380 5377 5374 5372 5370 5369 5367 5366 5364 5363 5362 5361 5360 5360 5360 5359 5359 5360 5360 5361
5461 5457 5454 5450 5447 5443 5439 5436 5432 5428 5425 5421 5417 5413 5409 5405 5401 5397 5394 5390 5386 5382 5379 5376 5373 5370 5367 5365 5362 5361 5359 5357 5356 5354 5353 5352 5352 5351 5351 5351 5351 5350 5351 5352
5455 5451 5448 5444 5441 5437 5433 5430 5426 5423 5419 5416 5412 5408 5404 5400 5395 5391 5387 5383 5380 5376 5373 5369 5366 5363 5360 5357 5355 5353 5351 5349 5348 5346 5345 5344 5344 5343 5343 5342 5342 5342 5342 5342
5449 5445 5442 5438 5435 5431 5428 5424 5421 5418 5414 5410 5406 5402 5398 5394 5390 5385 5381 5377 5374 5370 5367 5363 5360 5356 5353 5351 5348 5346 5344 5342 5340 5339 5338 5337 5336 5335 5335 5334 5334 5334 5333 5333
5443 5439 5436 5433 5429 5426 5422 5419 5415 5412 5408 5405 5401 5397 5393 5388 5384 5380 5376 5372 5368 5365 5361 5357 5354 5350 5347 5344 5342 5339 5337 5335 5333 5332 5330 5329 5329 5328 5327 5327 5326 5326 5325 5325
5437 5434 5430 5427 5424 5420 5417 5413 5410 5406 5402 5399 5395 5391 5387 5383 5379 5375 5371 5367 5364 5360 5356 5352 5348 5345 5341 5338 5335 5332 5330 5328 5326 5324 5323 5322 5321 5320 5320 5319 5318 5318 5318 5317
5432 5428 5425 5421 5418 5414 5411 5407 5404 5400 5396 5393 5389 5385 5381 5377 5374 5370 5366 5362 5359 5355 5351 5347 5343 5339 5336 5332 5329 5326 5323 5321 5319 5317 5315 5314 5313 5313 5312 5312 5311 5310 5310 5310
5426 5422 5419 5415 5412 5408 5405 5401 5397 5394 5390 5386 5383 5379 5375 5372 5368 5365 5361 5357 5353 5349 5346 5342 5338 5334 5330 5327 5323 5320 5317 5315 5312 5310 5308 5307 5306 5305 5305 5304 5304 5303 5303 5303
5419 5416 5413 5409 5406 5402 5399 5395 5391 5388 5384 5380 5377 5373 5370 5366 5362 5359 5355 5352 5348 5344 5340 5336 5332 5329 5325 5321 5317 5314 5311 5308 5305 5303 5301 5299 5298 5298 5297 5297 5296 5295 5295 5295
5413 5410 5406 5403 5399 5396 5392 5389 5385 5381 5378 5374 5371 5367 5364 5360 5356 5353 5349 5345 5342 5338 5334 5330 5326 5323 5319 5315 5311 5307 5304 5301 5298 5296 5294 5292 5291 5290 5289 5289 5288 5288 5287 5287
5407 5404 5400 5397 5393 5390 5386 5382 5379 5375 5372 5368 5365 5361 5358 5354 5350 5347 5343 5339 5335 5332 5328 5324 5320 5316 5313 5309 5305 5302 5298 5295 5292 5290 5287 5286 5284 5283 5282 5281 5281 5280 5279 5279
5401 5397 5394 5391 5387 5383 5380 5376 5373 5369 5366 5362 5359 5355 5352 5348 5344 5340 5337 5333 5329 5325 5322 5318 5314 5310 5307 5303 5299 5296 5293 5289 5286 5284 5282 5280 5278 5277 5276 5275 5274 5273 5272 5272
5395 5391 5388 5385 5381 5378 5374 5371 5367 5364 5361 5357 5353 5350 5346 5342 5339 5335 5331 5328 5324 5320 5316 5312 5308 5304 5300 5297 5293 5290 5287 5284 5281 5278 5276 5274 5272 5271 5270 5268 5267 5266 5265 5265
5389 5386 5382 5379 5376 5372 5369 5366 5362 5359 5356 5352 5349 5345 5341 5337 5334 5330 5326 5322 5319 5315 5311 5307 5303 5299 5295 5291 5288 5284 5281 5278 5275 5273 5271 5269 5267 5265 5264 5263 5261 5260 5259 5258
5384 5380 5377 5374 5370 5367 5364 5361 5358 5354 5351 5347 5344 5340 5336 5332 5329 5325 5321 5317 5313 5309 5305 5301 5297 5293 5290 5286 5282 5279 5276 5273 5270 5268 5266 5264 5262 5260 5258 5257 5255 5254 5253 5252